La Junta, CO

11:00 AM MDT on July 24, 2017 (GMT -0600)
La Junta Municipal

Weather History for KLHX - June, 2014

Change the Weather History Date:

Tuesday, June 24, 2014

  Actual Average Record
Temperature  
Mean Temperature 76 °F 75 °F  
Max Temperature 92 °F 91 °F 110 °F (2012)
Min Temperature 59 °F 60 °F 50 °F (1993)
Degree Days  
Heating Degree Days 0 0  
Month to date heating degree days 5 15  
Since 1 June heating degree days 5 15  
Since 1 July heating degree days 5191 5270  
Cooling Degree Days 11 11  
Month to date cooling degree days 235 177  
Year to date cooling degree days 357 250  
Since 1 June cooling degree days 235 177  
Growing Degree Days 24 (Base 50)    
Moisture  
Dew Point 57 °F    
Average Humidity 56    
Maximum Humidity 87    
Minimum Humidity 24    
Precipitation  
Precipitation 0.03 in 0.04 in 0.96 in (1979)
Month to date precipitation 1.20 1.09  
Year to date precipitation 3.87  
Sea Level Pressure  
Sea Level Pressure 29.92 in    
Wind  
Wind Speed 11 mph (East)    
Max Wind Speed 33 mph    
Max Gust Speed 40 mph    
Visibility 10 miles    
Events Rain , Thunderstorm    
T = Trace of Precipitation, MM = Missing Value Source: NWS Daily Summary

Daily Weather History Graph

Daily Weather History Graph

Search for Another Location

Airport or City:

Trip Planner

Search our weather history database for the weather conditions in past years. The results will help you decide how hot, cold, wet, or windy it might be!

Date:

Astronomy

Jun. 24, 2014 Rise Set
Actual Time 5:32 AM MDT 8:20 PM MDT
Civil Twilight 5:00 AM MDT 8:52 PM MDT
Nautical Twilight 4:21 AM MDT 9:31 PM MDT
Astronomical Twilight 3:36 AM MDT 10:16 PM MDT
Moon 3:38 AM MDT 6:03 PM MDT
Length of Visible Light 15h 51m
Length of Day
14h 48m
Waning Crescent, 6% of the Moon is Illuminated
Jun 24
Waning Crescent
Jun 27
New
Jul 5
First Quarter
Jul 12
Full
Jul 18
Last Quarter

Hourly Weather History & Observations

Time (MDT) Temp. Heat Index Dew Point Humidity Pressure Visibility Wind Dir Wind Speed Gust Speed Precip Events Conditions
12:53 AM 64.0 °F - 55.0 °F 73% 29.95 in 10.0 mi WNW 15.0 mph - N/A   Clear
1:53 AM 63.0 °F - 55.9 °F 78% 29.95 in 10.0 mi NW 6.9 mph - N/A   Clear
2:53 AM 62.1 °F - 57.0 °F 84% 29.96 in 10.0 mi North 9.2 mph - N/A   Clear
3:53 AM 60.1 °F - 55.9 °F 86% 29.96 in 10.0 mi NNE 9.2 mph - N/A   Partly Cloudy
4:53 AM 60.1 °F - 55.9 °F 86% 29.98 in 10.0 mi ENE 10.4 mph - N/A   Partly Cloudy
5:53 AM 59.0 °F - 55.9 °F 90% 29.98 in 10.0 mi ENE 8.1 mph - N/A   Partly Cloudy
6:53 AM 62.1 °F - 57.0 °F 84% 29.99 in 10.0 mi East 10.4 mph - N/A   Clear
8:53 AM 69.1 °F - 60.1 °F 73% 29.96 in 10.0 mi SE 10.4 mph - N/A   Clear
9:53 AM 73.0 °F - 60.1 °F 64% 29.94 in 10.0 mi SSE 15.0 mph - N/A   Clear
10:53 AM 75.9 °F - 57.9 °F 54% 29.93 in 10.0 mi Variable 4.6 mph - N/A   Clear
11:53 AM 78.1 °F - 60.1 °F 54% 29.90 in 10.0 mi South 9.2 mph - N/A   Clear
12:53 PM 81.0 °F 81.3 °F 59.0 °F 47% 29.87 in 10.0 mi West 4.6 mph - N/A   Clear
1:53 PM 82.9 °F 82.6 °F 57.9 °F 42% 29.84 in 10.0 mi Variable 3.5 mph - N/A   Clear
2:53 PM 86.0 °F 84.9 °F 57.0 °F 37% 29.80 in 10.0 mi WSW 4.6 mph - N/A   Clear
3:53 PM 89.1 °F 86.9 °F 54.0 °F 30% 29.77 in 10.0 mi WNW 4.6 mph - N/A   Clear
4:53 PM 90.0 °F - 48.9 °F 24% 29.77 in 10.0 mi North 4.6 mph - N/A   Clear
5:37 PM 78.1 °F - 57.9 °F 50% 29.97 in 9.0 mi East 32.2 mph 39.1 mph N/A   Clear
5:46 PM 77.0 °F - 57.9 °F 52% 29.98 in 10.0 mi East 28.8 mph 36.8 mph N/A   Clear
5:53 PM 75.9 °F - 59.0 °F 56% 29.84 in 10.0 mi East 28.8 mph 36.8 mph N/A   Clear
6:53 PM 70.0 °F - 57.9 °F 65% 29.90 in 10.0 mi ESE 26.5 mph - N/A   Clear
7:53 PM 68.0 °F - 57.9 °F 70% 29.89 in 10.0 mi ENE 15.0 mph - N/A   Clear
8:53 PM 66.9 °F - 57.9 °F 73% 29.90 in 10.0 mi NE 11.5 mph - N/A   Clear
9:53 PM 66.0 °F - 57.0 °F 73% 29.94 in 10.0 mi East 9.2 mph - N/A   Clear
10:53 PM 64.9 °F - 57.9 °F 78% 29.98 in 10.0 mi East 10.4 mph - 0.00 in Rain , Thunderstorm Light Rain
11:40 PM 63.0 °F - 60.1 °F 90% 30.12 in 10.0 mi SSE 17.3 mph - 0.03 in Rain Light Rain
11:53 PM 63.0 °F - 59.0 °F 87% 29.96 in 10.0 mi SSE 16.1 mph - 0.03 in   Mostly Cloudy